Regional Weather Roundup
Issued by NWS Burlington, VT

Home | Current Version | Previous Version | Text Only | Print | Product List | Glossary On
Versions: 1 2 3 4 5 6 7 8 9 10 11 12 13 14 15 16 17 18 19 20 21 22 23 24 25 26 27 28 29 30 31 32 33 34 35 36 37 38 39 40 41 42 43 44 45 46 47 48 49 50
000
ASUS41 KBTV 170810
RWRBTV
VERMONT REGIONAL WEATHER ROUNDUP
NATIONAL WEATHER SERVICE BURLINGTON VT
400 AM EDT THU AUG 17 2017

NOTE: "FAIR" INDICATES FEW OR NO CLOUDS BELOW 12,000 FEET WITH NO
SIGNIFICANT WEATHER AND/OR OBSTRUCTIONS TO VISIBILITY.

* THESE REPORTS ARE NOT UNDER NWS QUALITY CONTROL AND/OR DO NOT
  REPORT WEATHER SUCH AS PRECIPITATION AND FOG.

VTZ001>019-170900-
_____VERMONT_____


CITY           SKY/WX    TMP DP  RH WIND       PRES   REMARKS
BURLINGTON     CLEAR     52  50  93 CALM      30.05S
MONTPELIER     CLEAR     47  46  97 CALM      30.09S
MORRISVILLE    CLEAR     44  44 100 CALM      30.07S
ST. JOHNSBURY*   N/A     48  48 100 MISG      30.04S
MIDDLEBURY*    FAIR      51  47  88 CALM      30.06S
RUTLAND*       CLEAR     49  46  90 SE5       30.08S
SPRINGFIELD    CLEAR     49  46  90 CALM      30.07F
HIGHGATE*      MOCLDY    53  51  92 S3        30.02F
NEWPORT*       CLOUDY    52  49  91 SW5       30.04S
BENNINGTON     CLEAR     49  47  93 CALM      30.07F
SUTTON*          N/A     48 N/A N/A MISG        N/A

_____LAKE CHAMPLAIN_____


CITY           SKY/WX    TMP DP  RH WIND       PRES   REMARKS
BURTON ISLAND*   N/A     63  57  82 S10         N/A
COLCHESTER RF*   N/A     61  57  88 S10         N/A
DIAMOND ISL*     N/A     59  54  82 SE7         N/A

$$

NYZ007-026>031-035-052-083-087-170900-
_____NORTHERN NEW YORK_____


CITY           SKY/WX    TMP DP  RH WIND       PRES   REMARKS
PLATTSBURGH    CLEAR     51  49  92 CALM      30.03F
SARANAC LAKE   MOCLDY    38  38 100 CALM      30.08F
MASSENA        CLEAR     54  52  93 SW3       30.06S
OGDENSBURG*    FAIR      53  53  98 S3        30.06S
POTSDAM*       CLEAR     54  54 100 SW3       30.06S
WATERTOWN      CLEAR     50  49  96 E5        30.06F
FT DRUM        CLOUDY    53  50  89 S5        30.06F
ALBANY         PTCLDY    55  52  89 CALM      30.07S
GLENS FALLS    CLEAR     49  47  93 NW3       30.06F

$$
NHZ002-005-011-170900-
_____NEW HAMPSHIRE_____


CITY           SKY/WX    TMP DP  RH WIND       PRES   REMARKS
LEBANON        CLEAR     49  47  93 CALM      30.05F
KEENE            N/A    N/A N/A N/A MISG        N/A
MT WASHINGTON  FOG       37  37 100 NW47G66     N/A  VSB 0   WCI  22
PLYMOUTH       FAIR      47  46  96 N3        30.04F
WHITEFIELD     PTCLDY    42  38  85 CALM      30.05S

$$

_____REGIONAL QUEBEC LOCATIONS_____


CITY           SKY/WX    TMP DP  RH WIND       PRES   REMARKS
MONTREAL       PTCLDY    61  50  67 SW6       30.01S
QUEBEC CITY    CLEAR     55  43  62 NW8       29.95S
SHERBROOKE     CLOUDY    52  50  93 CALM      30.01S

_____REGIONAL ONTARIO LOCATIONS_____


CITY           SKY/WX    TMP DP  RH WIND       PRES   REMARKS
OTTAWA         CLEAR     54  50  87 W5        30.04F

______KEY______
VSB  - VISIBILITY IN MILES
WCI  - WIND CHILL INDEX
HX   - HEAT INDEX
$$
NNNN




USA.gov is the U.S. government's official web portal to all federal, state and local government web resources and services.